ARIANE 2 DEB, 42483

Orbit data source: Space-Track

ARIANE 2 DEB, 42483 is space debris in HEO originally from a launch on Fri, 27 Jan 1989 UTC launched from the French Guiana (FRGUI). Debris objects in space refer to the collection of defunct objects orbiting the Earth. Examples of debris include non-operational satellites, rocket bodies, and fragments generated from explosions, collisions, or faulty payload assembly.

Loading next visibility...
Identifier
42483, 1989-006CK
Orbit
HEO
Country
Flag of FRFR
Related business
Manufacturer
EADS/LV
Mission
Spacecraft
Bus & Motor
Unknown
Mass
Unknown
Launch date (UTC)
1989-01-27 (37 years ago)
Launch vehicle
Unknown
Launch site
French Guiana (FRGUI)
Object type
Payload
Rocket body
Debris
Shape & HBR
Unknown shape, 1.1 m
Radar Cross Section
Medium (>0.1 m² and <1 m²)

Expand to show TLE details & history
Last TLE update: 8 months ago

TLE from 8 months ago
0 ARIANE 2 DEB
1 42483U 89006CK  25057.89583331 -.00000022  00000-0  00000+0 0  9997
2 42483   9.0096  10.8294 6990544 225.9852  49.7490  2.22807501130768
Epoch: 2025-02-26T21:29Z
TLE epoch observation values (Epoch: 2025-02-26T21:29:59.997Z)
Latitude
0.00011°
Longitude
-108.59625°
Altitude
18,321.046 km
Speed
4.022 km/s
True Right ascension
00h 43m 31s
True Declination
0° 00' 00"
Sunlit
Object was in daylight at epoch
Visualization orbit readout
Latitude
Unknown
Longitude
Unknown
Altitude
Unknown
Speed
Unknown
Apparent Right ascension
Unknown
Apparent Declination
Unknown
Sunlit
N/A
Visualization observer readout
Local Sidereal Time
04:42:03
Azimuth
Unknown
Elevation
Unknown
Doppler factor
Unknown
Orbital elements
Apogee altitude
35,701.473 km
Perigee altitude
1,075.228 km
Semi-major axis
24,766.488 km
Eccentricity
0.69905
Inclination
9.0096°
RAAN
10.8294°
Arg. of periapsis
225.9852°
True anomaly
134.20917°
Mean anomaly
49.749°
Eccentric anomaly
89.80163°
Mean motion
0.55686 °/min
Orbital period
646.48 mins
BSTAR
0
Loading maneuver chart data...
Computing Atmospheric mass density...
Loading historical data...
Loading historical data...
Loading historical data...
Loading historical data...
Loading historical data...
Loading historical data...
Loading historical data...

Documentation

Showing up to 5 results
|